Regional Weather Roundup
Issued by NWS

Home | Current Version | Previous Version | Graphics & Text | Print | Product List | Glossary On
Versions: 1 2 3 4 5 6 7 8 9 10 11 12 13 14 15 16 17 18 19 20 21 22 23 24 25 26 27 28 29 30 31 32 33 34 35 36 37 38 39 40 41 42 43 44 45 46 47 48 49 50
022
ASUS43 KDMX 011701
RWRIA

WEATHER ROUNDUP FOR IOWA
NATIONAL WEATHER SERVICE DES MOINES IA
1100 AM CST WED MAR 01 2017

NOTE: "FAIR" INDICATES FEW OR NO CLOUDS BELOW 12,000 FEET WITH NO
SIGNIFICANT WEATHER AND/OR OBSTRUCTIONS TO VISIBILITY.

* - THESE STATIONS ARE NOT NWS STATIONS...THUS NOT UNDER NWS
QUALITY CONTROL.  THEY ALSO DO NOT REPORT WEATHER SUCH
AS PRECIPITATION OR FOG.

IAZ001>003-012>014-020>022-031>034-043>046-011800-
   NORTHWEST IOWA

CITY           SKY/WX    TMP DP  RH WIND       PRES   REMARKS
CARROLL *      PTSUNNY   36  34  93 NW25      29.98R WCI  23
CHEROKEE *     PTSUNNY   30  26  86 NW13G20   30.01R WCI  20
DENISON *      CLOUDY    32  28  86 NW20      30.01R WCI  20
LE MARS *      SUNNY     30  23  74 NW15G25   30.04R WCI  19
SHELDON *      SUNNY     27  28 100 NW21      29.98R WCI  13
SIOUX CITY     MOSUNNY   35  26  69 NW21      30.04R WCI  24
SPENCER        MOSUNNY   32  26  78 NW18      29.97R WCI  20
STORM LAKE *   MOSUNNY   30  27  86 NW20      29.98R WCI  18
$$

IAZ055>058-069>071-079>083-090>094-011800-
   SOUTHWEST IOWA

CITY           SKY/WX    TMP DP  RH WIND       PRES   REMARKS
ATLANTIC *     CLOUDY    34  30  86 NW18G24   30.03R WCI  23
AUDUBON *      CLOUDY    34  28  80 NW22      30.01R WCI  22
CLARINDA *     CLOUDY    36  28  75 NW18G29   30.08R WCI  25
COUNCIL BLFS * CLOUDY    36  30  80 NW17      30.05R WCI  25
CRESTON *      CLOUDY    34  28  80 NW23G29   30.00R WCI  22
HARLAN  *      CLOUDY    34  32  93 NW21G30   30.06R WCI  22
LAMONI         CLOUDY    36  28  73 NW23G32   29.98R WCI  24
RED OAK *      CLOUDY    37  28  70 NW21G28   30.05R WCI  27
SHENANDOAH *   PTSUNNY   39  28  65 NW20G28   30.07R WCI  30
$$

IAZ047>049-059>061-072>074-084-011800-
   CENTRAL IOWA

CITY           SKY/WX    TMP DP  RH WIND       PRES   REMARKS
AMES           CLOUDY    35  32  88 NW18G25   29.92R WCI  24
ANKENY *       CLOUDY    36  30  80 NW16G24   29.95R WCI  26
BOONE *        CLOUDY    34  30  86 NW23G31   29.92R WCI  22
CHARITON *     CLOUDY    36  32  87 W20       29.94R WCI  25
DES MOINES     PTSUNNY   38  31  76 NW18G30   29.94R WCI  28
GRINNELL*      CLOUDY    33  29  85 NW28G36   29.89R WCI  20
KNOXVILLE *    CLOUDY    37  32  81 NW15G26   29.91R WCI  28
MARSHALLTOWN   CLOUDY    33  29  85 NW30G37   29.88R WCI  19
NEWTON *       CLOUDY    34  30  86 NW22G30   29.90R WCI  22
PELLA *        PTSUNNY   36  31  80 NW26G37   29.91R WCI  24
PERRY *        CLOUDY    36  32  87 NW16G25   29.96R WCI  26
$$

IAZ004>006-015-016-023>025-035-036-011800-
   NORTH CENTRAL IOWA

CITY           SKY/WX    TMP DP  RH WIND       PRES   REMARKS
ALGONA *       CLOUDY    32  27  80 NW17G25   29.92R WCI  21
CLARION *      CLOUDY    32  32 100 NW25      29.91R WCI  19
ESTHERVILLE    MOSUNNY   33  27  78 NW22G28   29.93R WCI  21
FORT DODGE *   CLOUDY    34  27  75 NW12G21   29.94R WCI  25
MASON CITY     PTSUNNY   31  26  82 NW24G30   29.89R WCI  17
FOREST CITY *  CLOUDY    32  32 100 NW18G26   29.89R WCI  20
WEBSTER CITY * CLOUDY    32  30  93 NW25      29.90R WCI  19
IOWA FALLS *   CLOUDY    33  30  88 NW28      29.90R WCI  20
$$

IAZ007>011-017>019-026>030-037>042-050>054-066-011800-
   NORTHEAST IOWA

CITY           SKY/WX    TMP DP  RH WIND       PRES   REMARKS
CEDAR RAPIDS   CLOUDY    33  30  88 NW25G37   29.79R WCI  20
CHARLES CITY * MIX PCPN  30  30 100 NW23      29.84R WCI  17
CLINTON *      LGT RAIN  36  33  89 W29G35    29.71R WCI  23
DECORAH *      LGT SNOW  28  27  93 NW16G26   29.76R WCI  17
DUBUQUE        LGT SNOW  33  31  92 NW17      29.70R FOG     WCI  22
MONTICELLO *   LGT SNOW  34  30  86 NW22G31   29.74R WCI  22
OELWEIN *      LGT SNOW  30  30 100 NW25G31   29.79R WCI  16
WATERLOO       CLOUDY    32  27  81 NW22G32   29.83R WCI  19
$$

IAZ064-065-067-068-078-011800-
   EAST CENTRAL IOWA

CITY           SKY/WX    TMP DP  RH WIND       PRES   REMARKS
DAVENPORT      LGT RAIN  36  32  85 W23G30    29.75R WCI  24
IOWA CITY      CLOUDY    37  28  70 NW21G38   29.83R WCI  26
MUSCATINE *    CLOUDY    37  32  81 W26G33    29.81R WCI  26
QUAD CITIES    CLOUDY    38  32  79 W20G35    29.75R WCI  28
$$

IAZ062-063-075>077-085>089-095>099-011800-
   SOUTHEAST IOWA

CITY           SKY/WX    TMP DP  RH WIND       PRES   REMARKS
BURLINGTON     CLOUDY    39  34  82 W16G28    29.83R WCI  30
FAIRFIELD *    CLOUDY    37  30  75 W23G33    29.86R WCI  26
FORT MADISON * CLOUDY    37  34  87 W23G31    29.86R WCI  26
KEOKUK *       CLOUDY    39  34  81 W18G26    29.87R WCI  30
OTTUMWA        LGT RAIN  38  31  76 NW32G43   29.88R WCI  25
WASHINGTON *   CLOUDY    36  32  87 NW31G43   29.85R WCI  22
$$

ABBREVIATIONS USED IN REMARKS
   TC - TEMPERATURES IN CELSIUS
  WCI - WIND CHILL INDEX
   HX - HEAT INDEX
  VSB - VISIBILITY
$$





USA.gov is the U.S. government's official web portal to all federal, state and local government web resources and services.